TimeEDT,TemperatureF,Dew PointF,Humidity,Sea Level PressureIn,VisibilityMPH,Wind Direction,Wind SpeedMPH,Gust SpeedMPH,PrecipitationIn,Events,Conditions,WindDirDegrees,DateUTC
12:53 AM,64.9,62.1,90,30.10,10.0,Calm,Calm,-,N/A,,Clear,0,2013-09-17 04:53:00
1:53 AM,64.9,62.1,90,30.11,10.0,Calm,Calm,-,N/A,,Clear,0,2013-09-17 05:53:00
2:53 AM,63.0,61.0,93,30.10,9.0,Calm,Calm,-,N/A,,Clear,0,2013-09-17 06:53:00
3:53 AM,63.0,61.0,93,30.10,9.0,Calm,Calm,-,N/A,,Clear,0,2013-09-17 07:53:00
4:53 AM,64.9,62.1,90,30.11,10.0,Calm,Calm,-,N/A,,Clear,0,2013-09-17 08:53:00
5:53 AM,64.9,62.1,90,30.12,10.0,Calm,Calm,-,N/A,,Clear,0,2013-09-17 09:53:00
6:53 AM,69.1,62.1,78,30.13,10.0,NE,5.8,-,N/A,,Clear,40,2013-09-17 10:53:00
7:53 AM,70.0,62.1,76,30.15,10.0,ENE,11.5,-,N/A,,Clear,70,2013-09-17 11:53:00
8:53 AM,71.1,62.1,73,30.18,10.0,East,16.1,20.7,N/A,,Clear,80,2013-09-17 12:53:00
9:45 AM,71.6,62.6,73,30.21,10.0,ENE,16.1,19.6,N/A,,Mostly Cloudy,70,2013-09-17 13:45:00
9:53 AM,72.0,62.1,71,30.20,10.0,ENE,12.7,20.7,N/A,,Overcast,70,2013-09-17 13:53:00
10:53 AM,73.0,61.0,66,30.22,10.0,East,12.7,-,N/A,,Overcast,80,2013-09-17 14:53:00
11:53 AM,72.0,61.0,68,30.23,10.0,East,8.1,17.3,N/A,,Overcast,100,2013-09-17 15:53:00
12:53 PM,73.9,62.1,66,30.21,10.0,ENE,10.4,18.4,N/A,,Overcast,70,2013-09-17 16:53:00
1:53 PM,75.9,61.0,60,30.19,10.0,East,8.1,-,N/A,,Overcast,90,2013-09-17 17:53:00
2:53 PM,78.1,62.1,58,30.17,10.0,ENE,13.8,18.4,N/A,,Mostly Cloudy,70,2013-09-17 18:53:00
3:53 PM,79.0,61.0,54,30.15,10.0,East,8.1,17.3,N/A,,Mostly Cloudy,80,2013-09-17 19:53:00
4:53 PM,78.1,61.0,56,30.14,10.0,East,6.9,-,N/A,,Overcast,90,2013-09-17 20:53:00
5:53 PM,77.0,61.0,58,30.14,10.0,ENE,10.4,-,N/A,,Overcast,70,2013-09-17 21:53:00
6:53 PM,75.9,60.1,58,30.14,10.0,East,10.4,-,N/A,,Overcast,80,2013-09-17 22:53:00
7:53 PM,73.9,60.1,62,30.15,10.0,East,8.1,-,N/A,,Overcast,80,2013-09-17 23:53:00
8:53 PM,73.0,59.0,61,30.17,10.0,ENE,8.1,-,N/A,,Overcast,70,2013-09-18 00:53:00
9:53 PM,72.0,59.0,64,30.18,10.0,ENE,8.1,-,N/A,,Overcast,70,2013-09-18 01:53:00
10:53 PM,72.0,59.0,64,30.19,10.0,East,10.4,-,N/A,,Overcast,80,2013-09-18 02:53:00
11:53 PM,71.1,59.0,66,30.19,10.0,East,6.9,-,N/A,,Overcast,80,2013-09-18 03:53:00